This is the latest recevied weather packets stored in our database for station/object KB9PVH-8. If no packets are shown the sender has not sent any weather packets the latest 10 day(s).
| Time | Temp. | Humidity | Pressure | Rain* | Wind** | Luminosity | Snow |
|---|---|---|---|---|---|---|---|
| 1788064380 | 20° C | - | - | 0 mm | 0 m/s | - | - |
| 1788064328 | 20° C | - | - | 0 mm | 0 m/s | - | - |
| 1788062618 | 20° C | - | - | 0 mm | 0 m/s | - | - |
| 1788061887 | 20° C | - | - | 0 mm | 3.58 m/s, ° | - | - |
| 1788061749 | 20° C | - | - | 0 mm | 3.58 m/s, ° | - | - |
| 1788039929 | 20° C | - | - | 0.51 mm | 2.24 m/s, ° | - | - |
| 1788039746 | 20° C | - | - | 0.51 mm | 2.24 m/s, ° | - | - |
| 1788039685 | 20° C | - | - | 0.51 mm | 2.24 m/s, ° | - | - |
| 1788038959 | 20° C | - | - | 0.51 mm | 2.24 m/s, ° | - | - |
| 1788038845 | 20° C | - | - | 0.51 mm | 2.24 m/s, ° | - | - |
| 1788038069 | 20° C | - | - | 5.33 mm | 0.89 m/s, ° | - | - |
| 1788038005 | 20° C | - | - | 5.33 mm | 0.89 m/s, ° | - | - |
| 1788037202 | 20° C | - | - | 5.84 mm | 0.89 m/s, ° | - | - |
| 1788037135 | 20° C | - | - | 5.84 mm | 0.89 m/s, ° | - | - |
| 1788036423 | 20.56° C | - | - | 3.56 mm | 2.68 m/s, ° | - | - |
| 1788036295 | 20.56° C | - | - | 3.56 mm | 2.68 m/s, ° | - | - |
| 1788035807 | 20.56° C | - | - | 2.29 mm | 3.13 m/s, ° | - | - |
| 1788035455 | 20.56° C | - | - | 2.29 mm | 3.13 m/s, ° | - | - |
| 1788034931 | 21.11° C | - | - | 2.79 mm | 1.79 m/s, ° | - | - |
| 1788034687 | 21.11° C | - | - | 2.79 mm | 1.79 m/s, ° | - | - |
| 1788034615 | 21.11° C | - | - | 2.79 mm | 1.79 m/s, ° | - | - |
| 1788033775 | 21.67° C | - | - | 1.02 mm | 2.24 m/s, ° | - | - |
| 1788032936 | 21.67° C | - | - | 0.51 mm | 2.24 m/s, ° | - | - |
| 1788031318 | 22.22° C | - | - | 0 mm | 5.36 m/s, ° | - | - |
| 1788031255 | 22.22° C | - | - | 0 mm | 5.36 m/s, ° | - | - |
* Rain latest hour (hover to see other rain measurements)
** Current wind speed in m/s (hover to see current wind gust speed)